Location: Boiro
(42.6475°N, 8.8834°W)
Time: 13:55:54
(UTC+01:00)

Vanguard 2 - Pass Details

Date: 09 December 2021
Orbit: 553 x 2936 km, 32.9° (Epoch: 23 January)

Event Time Altitude Azimuth Distance (km) Brightness Sun altitude
Rises 18:33:39 0° 256° (WSW) 3,442 13.0 -6.0°
Reaches altitude 10° 18:37:07 10° 232° (SW) 2,844 12.1 -6.5°
Maximum altitude 18:40:49 15° 200° (SSW) 2,863 11.1 -7.2°
Drops below altitude 10° 18:45:27 10° 169° (S) 3,707 11.2 -7.9°
Sets 18:51:14 0° 150° (SSE) 5,268 11.7 -8.9°
